User: anonymous   Login
Location: Caltech
(34.1382°N, 118.1253°W)
Time: 18:04:17
(UTC-07:00)
Language:

Cosmos 2333 Rocket - Orbit

View from above orbital plane
View from above orbital plane
View from above satellite
View from above satellite

Ground track
Ground track

The orbit data is extracted from the following two-line orbital elements,

1 24298U 96051B   15210.98645721 -.00000163  00000-0 -61991-4 0  9999
2 24298 070.8413 072.8783 0014124 133.0568 227.1737 14.12407286974647
Epoch (UTC): 29 July 2015 23:40:29
Eccentricity: 0.0014124
inclination: 70.8413°
perigee height: 841 km
apogee height: 861 km
right ascension of ascending node: 72.8783°
argument of perigee: 133.0568°
revolutions per day: 14.12407286
mean anomaly at epoch: 227.1737°
orbit number at epoch: 97464

The dashed part of the orbit path shows where the satellite is in the earth's shadow,  

DLR